VCP115 TFFA-TTCP

Flight info

Callsign VCP115
Flight time 2h 30m
Altitude 10000
Route PPR UA312 FOF UA555 BGI UR515 TAB
Aircraft DHC6/L-SDFGR/C

Departure

Time 2026-04-17 09:31
Airport La Désirade Airport (TFFA)

Arrival

Time 2026-04-17 12:01
Airport A.N.R. Robinson International Airport (TTCP)
Time Latitude Longitude Altitude Speed Heading
2026-04-17 09:18 16.29687 -61.08659 16 ft 0 kts 243°
2026-04-17 09:29 16.29677 -61.08677 17 ft 6 kts 219°
2026-04-17 09:29 16.29632 -61.08680 16 ft 7 kts 236°
2026-04-17 09:29 16.29612 -61.08706 16 ft 0 kts 86°
2026-04-17 09:30 16.29613 -61.08704 16 ft 0 kts 69°
2026-04-17 09:30 16.29680 -61.08512 15 ft 58 kts 71°
2026-04-17 09:30 16.29833 -61.08025 215 ft 77 kts 84°
2026-04-17 09:30 16.29469 -61.07588 503 ft 101 kts 160°
2026-04-17 09:31 16.28702 -61.07800 702 ft 130 kts 212°
2026-04-17 09:31 16.28275 -61.08624 974 ft 135 kts 264°
2026-04-17 09:31 16.28273 -61.09585 1275 ft 132 kts 269°
2026-04-17 09:31 16.28247 -61.10592 1395 ft 144 kts 265°
2026-04-17 09:32 16.28195 -61.11660 1581 ft 151 kts 264°
2026-04-17 09:32 16.28117 -61.12748 1760 ft 151 kts 264°
2026-04-17 09:32 16.28018 -61.13839 1940 ft 152 kts 263°
2026-04-17 09:32 16.27899 -61.14934 2134 ft 153 kts 262°
2026-04-17 09:33 16.27756 -61.16046 2331 ft 156 kts 261°
2026-04-17 09:33 16.27389 -61.17071 2513 ft 149 kts 229°
2026-04-17 09:33 16.27059 -61.18088 2670 ft 154 kts 269°
2026-04-17 09:33 16.27102 -61.19202 2858 ft 154 kts 275°
2026-04-17 09:34 16.27188 -61.19930 2981 ft 153 kts 284°
2026-04-17 09:34 16.27490 -61.21363 3249 ft 154 kts 284°
2026-04-17 09:34 16.27721 -61.22451 3449 ft 154 kts 284°
2026-04-17 09:34 16.28159 -61.23451 3645 ft 153 kts 304°
2026-04-17 09:35 16.28527 -61.24502 3841 ft 159 kts 275°
2026-04-17 09:35 16.28497 -61.25277 3989 ft 159 kts 263°
2026-04-17 09:35 16.28401 -61.26417 4206 ft 161 kts 266°
2026-04-17 09:35 16.28298 -61.27982 4501 ft 163 kts 266°
2026-04-17 09:36 16.28246 -61.28765 4646 ft 163 kts 265°
2026-04-17 09:36 16.28165 -61.29946 4860 ft 164 kts 265°
2026-04-17 09:36 16.28085 -61.31130 5072 ft 165 kts 265°
2026-04-17 09:36 16.28004 -61.32328 5280 ft 167 kts 265°
2026-04-17 09:37 16.27920 -61.33539 5489 ft 168 kts 265°
2026-04-17 09:37 16.27839 -61.34749 5704 ft 166 kts 265°
2026-04-17 09:37 16.27755 -61.35944 5914 ft 166 kts 266°
2026-04-17 09:37 16.27673 -61.37138 6124 ft 166 kts 265°
2026-04-17 09:38 16.27591 -61.38352 6321 ft 169 kts 266°
2026-04-17 09:38 16.27509 -61.39574 6517 ft 168 kts 266°
2026-04-17 09:38 16.27424 -61.40782 6711 ft 168 kts 265°
2026-04-17 09:38 16.27343 -61.41991 6907 ft 166 kts 266°
2026-04-17 09:39 16.27261 -61.43177 7113 ft 163 kts 266°
2026-04-17 09:39 16.27181 -61.44349 7304 ft 161 kts 266°
2026-04-17 09:39 16.27101 -61.45512 7504 ft 161 kts 265°
2026-04-17 09:39 16.27022 -61.46653 7690 ft 160 kts 265°
2026-04-17 09:40 16.26941 -61.47808 7860 ft 161 kts 266°
2026-04-17 09:40 16.26863 -61.48968 8048 ft 160 kts 266°
2026-04-17 09:40 16.26782 -61.50125 8225 ft 161 kts 266°
2026-04-17 09:40 16.26704 -61.51282 8420 ft 160 kts 266°
2026-04-17 09:41 16.26544 -61.52412 8600 ft 158 kts 247°
2026-04-17 09:41 16.25814 -61.53225 8776 ft 155 kts 207°
2026-04-17 09:41 16.24780 -61.53439 8940 ft 152 kts 170°
2026-04-17 09:41 16.23789 -61.53145 9211 ft 142 kts 161°
2026-04-17 09:42 16.22903 -61.52877 9668 ft 128 kts 162°
2026-04-17 09:42 16.22011 -61.52598 9830 ft 139 kts 163°
2026-04-17 09:42 16.21067 -61.52307 9958 ft 147 kts 163°
2026-04-17 09:42 16.20045 -61.51991 9983 ft 158 kts 163°
2026-04-17 09:43 16.18977 -61.51660 9996 ft 165 kts 163°
2026-04-17 09:43 16.17861 -61.51313 10002 ft 170 kts 163°
2026-04-17 09:43 16.16719 -61.50958 10006 ft 172 kts 163°
2026-04-17 09:43 16.15565 -61.50599 10004 ft 173 kts 163°
2026-04-17 09:44 16.14406 -61.50239 9998 ft 174 kts 163°
2026-04-17 09:44 16.13249 -61.49878 9996 ft 174 kts 163°
2026-04-17 09:44 16.12090 -61.49518 9992 ft 174 kts 163°
2026-04-17 09:44 16.10933 -61.49158 9989 ft 174 kts 163°
2026-04-17 09:45 16.09773 -61.48798 9986 ft 174 kts 163°
2026-04-17 09:45 16.08617 -61.48437 9983 ft 174 kts 163°
2026-04-17 09:45 16.07459 -61.48078 9981 ft 174 kts 163°
2026-04-17 09:45 16.06301 -61.47717 9979 ft 173 kts 163°
2026-04-17 09:46 16.05144 -61.47358 9981 ft 173 kts 163°
2026-04-17 09:46 16.03989 -61.46998 9978 ft 173 kts 163°
2026-04-17 09:46 16.02832 -61.46639 9981 ft 173 kts 163°
2026-04-17 09:46 16.01676 -61.46279 9978 ft 173 kts 163°
2026-04-17 09:47 16.00535 -61.45925 9977 ft 174 kts 163°
2026-04-17 09:47 15.99378 -61.45566 9980 ft 173 kts 163°
2026-04-17 09:47 15.98222 -61.45207 9976 ft 173 kts 163°
2026-04-17 09:47 15.97066 -61.44848 9978 ft 173 kts 163°
2026-04-17 09:48 15.95910 -61.44488 9976 ft 173 kts 163°
2026-04-17 09:48 15.94753 -61.44129 9976 ft 174 kts 163°
2026-04-17 09:48 15.93595 -61.43770 9976 ft 174 kts 163°
2026-04-17 09:48 15.92440 -61.43411 9976 ft 173 kts 163°
2026-04-17 09:49 15.91284 -61.43053 9978 ft 174 kts 163°
2026-04-17 09:49 15.90128 -61.42693 9984 ft 173 kts 163°
2026-04-17 09:49 15.88972 -61.42334 9981 ft 174 kts 163°
2026-04-17 09:49 15.87814 -61.41975 9980 ft 174 kts 163°
2026-04-17 09:50 15.86656 -61.41616 9978 ft 174 kts 163°
2026-04-17 09:50 15.85498 -61.41256 9978 ft 174 kts 163°
2026-04-17 09:50 15.84338 -61.40896 9978 ft 174 kts 163°
2026-04-17 09:50 15.83179 -61.40537 9977 ft 174 kts 163°
2026-04-17 09:51 15.82022 -61.40178 9976 ft 174 kts 163°
2026-04-17 09:51 15.80875 -61.39823 9975 ft 174 kts 163°
2026-04-17 09:51 15.79718 -61.39463 9975 ft 174 kts 163°
2026-04-17 09:51 15.78560 -61.39105 9976 ft 173 kts 163°
2026-04-17 09:52 15.77403 -61.38746 9972 ft 173 kts 163°
2026-04-17 09:52 15.76246 -61.38387 9972 ft 173 kts 163°
2026-04-17 09:52 15.75088 -61.38028 9972 ft 174 kts 163°
2026-04-17 09:52 15.73928 -61.37669 9973 ft 173 kts 163°
2026-04-17 09:53 15.72771 -61.37311 9976 ft 174 kts 163°
2026-04-17 09:53 15.71615 -61.36952 9977 ft 173 kts 163°
2026-04-17 09:53 15.70461 -61.36595 9978 ft 173 kts 163°
2026-04-17 09:53 15.69307 -61.36237 9978 ft 173 kts 163°
2026-04-17 09:54 15.68168 -61.35885 9971 ft 174 kts 163°
2026-04-17 09:54 15.67009 -61.35525 9970 ft 174 kts 163°
2026-04-17 09:54 15.65847 -61.35166 9970 ft 174 kts 163°
2026-04-17 09:54 15.64685 -61.34806 9969 ft 175 kts 163°
2026-04-17 09:55 15.63522 -61.34446 9974 ft 174 kts 163°
2026-04-17 09:55 15.62356 -61.34086 9973 ft 175 kts 163°
2026-04-17 09:55 15.61189 -61.33723 9973 ft 175 kts 163°
2026-04-17 09:55 15.60023 -61.33363 9976 ft 175 kts 162°
2026-04-17 09:56 15.58858 -61.33001 9977 ft 174 kts 163°
2026-04-17 09:56 15.57696 -61.32644 9976 ft 174 kts 162°
2026-04-17 09:56 15.56536 -61.32284 9978 ft 174 kts 163°
2026-04-17 09:56 15.55375 -61.31926 9978 ft 174 kts 162°
2026-04-17 09:57 15.54216 -61.31566 9974 ft 174 kts 162°
2026-04-17 09:57 15.53055 -61.31208 9975 ft 174 kts 162°
2026-04-17 09:57 15.51894 -61.30848 9974 ft 174 kts 163°
2026-04-17 09:57 15.50748 -61.30490 9973 ft 174 kts 162°
2026-04-17 09:58 15.49587 -61.30134 9976 ft 174 kts 162°
2026-04-17 09:58 15.48424 -61.29775 9977 ft 174 kts 162°
2026-04-17 09:58 15.47259 -61.29417 9977 ft 174 kts 162°
2026-04-17 09:58 15.46097 -61.29056 9978 ft 174 kts 162°
2026-04-17 09:59 15.44934 -61.28697 9977 ft 174 kts 163°
2026-04-17 09:59 15.43774 -61.28339 9978 ft 174 kts 162°
2026-04-17 09:59 15.42614 -61.27981 9976 ft 174 kts 163°
2026-04-17 09:59 15.41452 -61.27622 9972 ft 174 kts 162°
2026-04-17 10:00 15.40307 -61.27267 9972 ft 174 kts 162°
2026-04-17 10:00 15.39143 -61.26908 9973 ft 174 kts 162°
2026-04-17 10:00 15.37979 -61.26549 9974 ft 174 kts 163°
2026-04-17 10:00 15.36817 -61.26191 9974 ft 174 kts 162°
2026-04-17 10:01 15.35656 -61.25831 9969 ft 175 kts 163°
2026-04-17 10:01 15.34488 -61.25471 9969 ft 175 kts 162°
2026-04-17 10:01 15.33319 -61.25110 9969 ft 175 kts 163°
2026-04-17 10:01 15.32151 -61.24750 9970 ft 175 kts 163°
2026-04-17 10:02 15.30982 -61.24390 9970 ft 175 kts 163°
2026-04-17 10:02 15.29814 -61.24029 9971 ft 175 kts 163°
2026-04-17 10:02 15.28657 -61.23673 9966 ft 176 kts 162°
2026-04-17 10:02 15.27483 -61.23310 9967 ft 176 kts 162°
2026-04-17 10:03 15.26308 -61.22949 9969 ft 176 kts 162°
2026-04-17 10:03 15.25133 -61.22585 9967 ft 176 kts 162°
2026-04-17 10:03 15.23957 -61.22223 9968 ft 176 kts 162°
2026-04-17 10:03 15.22783 -61.21861 9971 ft 176 kts 163°
2026-04-17 10:04 15.21612 -61.21501 9971 ft 176 kts 162°
2026-04-17 10:04 15.20438 -61.21138 9972 ft 176 kts 163°
2026-04-17 10:04 15.19266 -61.20778 9970 ft 176 kts 162°
2026-04-17 10:04 15.18087 -61.20413 9969 ft 177 kts 162°
2026-04-17 10:05 15.16924 -61.20055 9968 ft 177 kts 162°
2026-04-17 10:05 15.15745 -61.19691 9964 ft 177 kts 162°
2026-04-17 10:05 15.14566 -61.19329 9965 ft 177 kts 162°
2026-04-17 10:05 15.13389 -61.18966 9965 ft 177 kts 162°
2026-04-17 10:06 15.12210 -61.18602 9972 ft 176 kts 162°
2026-04-17 10:06 15.11034 -61.18241 9971 ft 176 kts 162°
2026-04-17 10:06 15.09856 -61.17877 9971 ft 177 kts 162°
2026-04-17 10:06 15.08681 -61.17516 9969 ft 176 kts 163°
2026-04-17 10:07 15.07505 -61.17155 9971 ft 176 kts 162°
2026-04-17 10:07 15.06333 -61.16794 9971 ft 176 kts 162°
2026-04-17 10:07 15.05160 -61.16432 9969 ft 176 kts 162°
2026-04-17 10:07 15.03985 -61.16070 9968 ft 176 kts 162°
2026-04-17 10:08 15.02809 -61.15709 9969 ft 175 kts 163°
2026-04-17 10:08 15.01640 -61.15350 9969 ft 175 kts 163°
2026-04-17 10:08 15.00478 -61.14992 9968 ft 174 kts 162°
2026-04-17 10:08 14.99311 -61.14632 9969 ft 174 kts 162°
2026-04-17 10:09 14.98147 -61.14275 9966 ft 175 kts 163°
2026-04-17 10:09 14.96997 -61.13922 9968 ft 174 kts 162°
2026-04-17 10:09 14.95835 -61.13563 9968 ft 174 kts 163°
2026-04-17 10:09 14.94675 -61.13207 9969 ft 174 kts 163°
2026-04-17 10:10 14.93516 -61.12850 9969 ft 174 kts 163°
2026-04-17 10:10 14.92355 -61.12494 9968 ft 174 kts 162°
2026-04-17 10:10 14.91195 -61.12137 9966 ft 174 kts 162°
2026-04-17 10:11 14.88868 -61.11422 9960 ft 175 kts 162°
2026-04-17 10:11 14.87705 -61.11064 9962 ft 174 kts 163°
2026-04-17 10:11 14.86542 -61.10708 9963 ft 174 kts 163°
2026-04-17 10:11 14.85381 -61.10352 9962 ft 174 kts 162°
2026-04-17 10:12 14.84222 -61.09995 9961 ft 174 kts 162°
2026-04-17 10:12 14.83062 -61.09638 9963 ft 174 kts 163°
2026-04-17 10:12 14.81902 -61.09282 9961 ft 174 kts 162°
2026-04-17 10:12 14.80744 -61.08927 9964 ft 174 kts 162°
2026-04-17 10:13 14.79585 -61.08570 9960 ft 173 kts 162°
2026-04-17 10:13 14.78426 -61.08215 9958 ft 175 kts 162°
2026-04-17 10:13 14.77274 -61.07861 9952 ft 175 kts 162°
2026-04-17 10:13 14.76108 -61.07504 9950 ft 174 kts 162°
2026-04-17 10:14 14.74942 -61.07146 9946 ft 175 kts 162°
2026-04-17 10:14 14.73779 -61.06789 9947 ft 175 kts 163°
2026-04-17 10:14 14.72613 -61.06432 9944 ft 175 kts 162°
2026-04-17 10:14 14.71449 -61.06074 9945 ft 174 kts 163°
2026-04-17 10:15 14.70287 -61.05718 9940 ft 174 kts 162°
2026-04-17 10:15 14.69126 -61.05361 9939 ft 174 kts 163°
2026-04-17 10:15 14.67968 -61.05006 9938 ft 174 kts 162°
2026-04-17 10:15 14.66808 -61.04651 9938 ft 174 kts 162°
2026-04-17 10:16 14.65662 -61.04300 9941 ft 174 kts 162°
2026-04-17 10:16 14.64505 -61.03944 9947 ft 173 kts 163°
2026-04-17 10:16 14.63348 -61.03590 9947 ft 173 kts 163°
2026-04-17 10:16 14.62190 -61.03235 9946 ft 173 kts 163°
2026-04-17 10:17 14.61033 -61.02881 9946 ft 173 kts 163°
2026-04-17 10:17 14.59880 -61.02527 9945 ft 173 kts 163°
2026-04-17 10:17 14.58795 -61.02026 9923 ft 172 kts 139°
2026-04-17 10:17 14.57974 -61.01143 9927 ft 171 kts 134°
2026-04-17 10:18 14.57127 -61.00276 9931 ft 172 kts 135°
2026-04-17 10:18 14.56276 -60.99410 9930 ft 172 kts 135°
2026-04-17 10:18 14.55423 -60.98538 9932 ft 173 kts 135°
2026-04-17 10:18 14.54584 -60.97676 9939 ft 172 kts 135°
2026-04-17 10:19 14.53736 -60.96808 9944 ft 171 kts 135°
2026-04-17 10:19 14.52886 -60.95938 9942 ft 172 kts 135°
2026-04-17 10:19 14.52033 -60.95064 9942 ft 173 kts 135°
2026-04-17 10:19 14.51180 -60.94190 9943 ft 173 kts 135°
2026-04-17 10:20 14.50326 -60.93315 9947 ft 173 kts 135°
2026-04-17 10:20 14.49471 -60.92439 9949 ft 173 kts 135°
2026-04-17 10:20 14.48617 -60.91564 9951 ft 173 kts 135°
2026-04-17 10:20 14.47761 -60.90688 9949 ft 173 kts 135°
2026-04-17 10:21 14.46906 -60.89813 9954 ft 173 kts 135°
2026-04-17 10:21 14.46051 -60.88937 9953 ft 173 kts 135°
2026-04-17 10:21 14.45195 -60.88063 9953 ft 173 kts 135°
2026-04-17 10:21 14.44352 -60.87198 9954 ft 173 kts 135°
2026-04-17 10:22 14.43497 -60.86325 9953 ft 173 kts 135°
2026-04-17 10:22 14.42643 -60.85449 9954 ft 173 kts 135°
2026-04-17 10:22 14.41786 -60.84574 9953 ft 173 kts 135°
2026-04-17 10:22 14.40932 -60.83698 9953 ft 173 kts 135°
2026-04-17 10:23 14.40077 -60.82826 9954 ft 173 kts 135°
2026-04-17 10:23 14.39221 -60.81949 9953 ft 173 kts 135°
2026-04-17 10:23 14.38367 -60.81076 9953 ft 173 kts 135°
2026-04-17 10:23 14.37512 -60.80202 9954 ft 173 kts 135°
2026-04-17 10:24 14.36656 -60.79328 9956 ft 173 kts 135°
2026-04-17 10:24 14.35800 -60.78452 9951 ft 173 kts 136°
2026-04-17 10:24 14.34946 -60.77580 9953 ft 173 kts 136°
2026-04-17 10:24 14.34095 -60.76709 9954 ft 172 kts 136°
2026-04-17 10:25 14.33243 -60.75839 9953 ft 172 kts 136°
2026-04-17 10:25 14.32680 -60.75263 9953 ft 172 kts 136°
2026-04-17 10:25 14.31826 -60.74391 9952 ft 172 kts 135°
2026-04-17 10:25 14.30975 -60.73521 9953 ft 172 kts 135°
2026-04-17 10:26 14.30123 -60.72652 9956 ft 172 kts 135°
2026-04-17 10:26 14.29274 -60.71783 9956 ft 172 kts 135°
2026-04-17 10:26 14.28423 -60.70915 9956 ft 172 kts 135°
2026-04-17 10:26 14.27573 -60.70046 9955 ft 172 kts 135°
2026-04-17 10:27 14.26724 -60.69180 9953 ft 172 kts 135°
2026-04-17 10:27 14.25875 -60.68313 9953 ft 172 kts 135°
2026-04-17 10:27 14.25024 -60.67444 9953 ft 172 kts 135°
2026-04-17 10:27 14.24186 -60.66589 9954 ft 172 kts 135°
2026-04-17 10:28 14.23337 -60.65722 9957 ft 172 kts 135°
2026-04-17 10:28 14.22485 -60.64854 9955 ft 172 kts 135°
2026-04-17 10:28 14.21637 -60.63987 9956 ft 172 kts 135°
2026-04-17 10:28 14.20787 -60.63122 9961 ft 172 kts 135°
2026-04-17 10:29 14.19938 -60.62254 9959 ft 172 kts 135°
2026-04-17 10:29 14.19089 -60.61389 9959 ft 172 kts 135°
2026-04-17 10:29 14.18239 -60.60521 9958 ft 172 kts 135°
2026-04-17 10:29 14.17389 -60.59656 9959 ft 172 kts 135°
2026-04-17 10:30 14.16540 -60.58789 9962 ft 172 kts 135°
2026-04-17 10:30 14.15691 -60.57924 9962 ft 172 kts 135°
2026-04-17 10:30 14.14841 -60.57057 9962 ft 172 kts 135°
2026-04-17 10:30 14.13991 -60.56190 9962 ft 172 kts 136°
2026-04-17 10:31 14.13153 -60.55336 9960 ft 172 kts 135°
2026-04-17 10:31 14.12293 -60.54460 9961 ft 172 kts 135°
2026-04-17 10:31 14.11443 -60.53594 9961 ft 172 kts 135°
2026-04-17 10:31 14.10605 -60.52740 9961 ft 172 kts 135°
2026-04-17 10:32 14.09753 -60.51873 9962 ft 172 kts 135°
2026-04-17 10:32 14.08904 -60.51007 9961 ft 172 kts 135°
2026-04-17 10:32 14.08054 -60.50142 9961 ft 172 kts 135°
2026-04-17 10:32 14.07204 -60.49275 9962 ft 172 kts 135°
2026-04-17 10:33 14.06354 -60.48412 9962 ft 172 kts 135°
2026-04-17 10:33 14.05505 -60.47545 9962 ft 172 kts 135°
2026-04-17 10:33 14.04653 -60.46679 9960 ft 172 kts 135°
2026-04-17 10:33 14.03804 -60.45813 9957 ft 172 kts 135°
2026-04-17 10:34 14.02949 -60.44944 9955 ft 173 kts 135°
2026-04-17 10:34 14.02094 -60.44073 9955 ft 173 kts 135°
2026-04-17 10:34 14.01239 -60.43204 9955 ft 173 kts 135°
2026-04-17 10:34 14.00394 -60.42342 9956 ft 173 kts 135°
2026-04-17 10:35 13.99537 -60.41473 9963 ft 173 kts 135°
2026-04-17 10:35 13.98684 -60.40603 9965 ft 172 kts 135°
2026-04-17 10:35 13.97830 -60.39736 9964 ft 172 kts 135°
2026-04-17 10:35 13.96977 -60.38867 9965 ft 172 kts 135°
2026-04-17 10:36 13.96122 -60.37999 9961 ft 172 kts 135°
2026-04-17 10:36 13.95270 -60.37131 9962 ft 172 kts 135°
2026-04-17 10:36 13.94417 -60.36265 9962 ft 172 kts 135°
2026-04-17 10:36 13.93563 -60.35396 9961 ft 172 kts 135°
2026-04-17 10:37 13.92710 -60.34530 9964 ft 172 kts 135°
2026-04-17 10:37 13.91868 -60.33674 9964 ft 172 kts 135°
2026-04-17 10:37 13.91017 -60.32808 9965 ft 172 kts 135°
2026-04-17 10:37 13.90162 -60.31940 9965 ft 172 kts 135°
2026-04-17 10:38 13.89310 -60.31074 9964 ft 172 kts 135°
2026-04-17 10:38 13.88457 -60.30208 9964 ft 172 kts 135°
2026-04-17 10:38 13.87604 -60.29340 9964 ft 172 kts 135°
2026-04-17 10:38 13.86751 -60.28475 9967 ft 172 kts 135°
2026-04-17 10:39 13.85898 -60.27607 9966 ft 172 kts 135°
2026-04-17 10:39 13.85044 -60.26742 9967 ft 172 kts 135°
2026-04-17 10:39 13.84192 -60.25875 9967 ft 172 kts 135°
2026-04-17 10:39 13.83338 -60.25010 9967 ft 172 kts 135°
2026-04-17 10:40 13.82485 -60.24142 9968 ft 172 kts 135°
2026-04-17 10:40 13.81632 -60.23278 9967 ft 172 kts 135°
2026-04-17 10:40 13.80780 -60.22411 9967 ft 172 kts 135°
2026-04-17 10:40 13.79926 -60.21545 9967 ft 172 kts 135°
2026-04-17 10:41 13.79082 -60.20689 9966 ft 172 kts 135°
2026-04-17 10:41 13.78226 -60.19821 9967 ft 172 kts 135°
2026-04-17 10:41 13.77374 -60.18956 9964 ft 172 kts 135°
2026-04-17 10:41 13.76521 -60.18091 9965 ft 172 kts 135°
2026-04-17 10:42 13.75668 -60.17225 9972 ft 172 kts 135°
2026-04-17 10:42 13.74816 -60.16361 9969 ft 172 kts 135°
2026-04-17 10:42 13.73965 -60.15499 9970 ft 172 kts 135°
2026-04-17 10:42 13.73113 -60.14636 9970 ft 172 kts 135°
2026-04-17 10:43 13.72265 -60.13774 9967 ft 172 kts 135°
2026-04-17 10:43 13.71415 -60.12913 9967 ft 171 kts 135°
2026-04-17 10:43 13.70566 -60.12052 9966 ft 171 kts 135°
2026-04-17 10:43 13.69717 -60.11192 9966 ft 171 kts 135°
2026-04-17 10:44 13.68866 -60.10329 9969 ft 171 kts 135°
2026-04-17 10:44 13.68017 -60.09469 9970 ft 171 kts 134°
2026-04-17 10:44 13.67170 -60.08610 9970 ft 171 kts 134°
2026-04-17 10:44 13.66321 -60.07751 9969 ft 171 kts 134°
2026-04-17 10:45 13.65473 -60.06892 9969 ft 171 kts 135°
2026-04-17 10:45 13.64635 -60.06043 9969 ft 171 kts 134°
2026-04-17 10:45 13.63787 -60.05183 9968 ft 171 kts 135°
2026-04-17 10:45 13.62940 -60.04327 9971 ft 170 kts 134°
2026-04-17 10:46 13.62100 -60.03475 9970 ft 169 kts 134°
2026-04-17 10:46 13.61260 -60.02626 9965 ft 169 kts 134°
2026-04-17 10:46 13.60422 -60.01777 9965 ft 169 kts 134°
2026-04-17 10:46 13.59581 -60.00926 9967 ft 169 kts 134°
2026-04-17 10:47 13.58745 -60.00079 9966 ft 169 kts 134°
2026-04-17 10:47 13.57904 -59.99228 9966 ft 170 kts 134°
2026-04-17 10:47 13.57075 -59.98391 9969 ft 169 kts 134°
2026-04-17 10:47 13.56240 -59.97545 9968 ft 169 kts 134°
2026-04-17 10:48 13.55400 -59.96695 9969 ft 169 kts 134°
2026-04-17 10:48 13.54565 -59.95850 9971 ft 169 kts 134°
2026-04-17 10:48 13.53728 -59.95004 9972 ft 168 kts 134°
2026-04-17 10:48 13.52898 -59.94161 9961 ft 168 kts 133°
2026-04-17 10:49 13.52062 -59.93318 9961 ft 168 kts 134°
2026-04-17 10:49 13.51228 -59.92477 9958 ft 168 kts 134°
2026-04-17 10:49 13.50394 -59.91631 9956 ft 169 kts 134°
2026-04-17 10:49 13.49555 -59.90785 9956 ft 169 kts 134°
2026-04-17 10:50 13.48718 -59.89939 9957 ft 168 kts 134°
2026-04-17 10:50 13.47887 -59.89098 9957 ft 168 kts 134°
2026-04-17 10:50 13.47063 -59.88263 9953 ft 169 kts 134°
2026-04-17 10:50 13.46224 -59.87418 9951 ft 169 kts 134°
2026-04-17 10:51 13.45384 -59.86569 9952 ft 169 kts 134°
2026-04-17 10:51 13.44549 -59.85725 9953 ft 168 kts 134°
2026-04-17 10:51 13.43715 -59.84882 9955 ft 168 kts 134°
2026-04-17 10:51 13.42883 -59.84041 9956 ft 167 kts 134°
2026-04-17 10:52 13.42050 -59.83200 9953 ft 168 kts 135°
2026-04-17 10:52 13.41215 -59.82357 9947 ft 168 kts 134°
2026-04-17 10:52 13.40386 -59.81519 9950 ft 167 kts 134°
2026-04-17 10:52 13.39553 -59.80679 9947 ft 168 kts 134°
2026-04-17 10:53 13.38719 -59.79837 9953 ft 168 kts 134°
2026-04-17 10:53 13.37886 -59.78997 9956 ft 167 kts 134°
2026-04-17 10:53 13.37054 -59.78157 9953 ft 168 kts 134°
2026-04-17 10:53 13.36220 -59.77313 9953 ft 168 kts 134°
2026-04-17 10:54 13.35396 -59.76483 9953 ft 167 kts 134°
2026-04-17 10:54 13.34564 -59.75644 9950 ft 168 kts 134°
2026-04-17 10:54 13.33730 -59.74802 9951 ft 168 kts 134°
2026-04-17 10:54 13.32896 -59.73959 9949 ft 169 kts 135°
2026-04-17 10:55 13.32058 -59.73115 9948 ft 169 kts 135°
2026-04-17 10:55 13.31218 -59.72268 9948 ft 169 kts 134°
2026-04-17 10:55 13.30383 -59.71424 9942 ft 168 kts 134°
2026-04-17 10:55 13.29551 -59.70586 9940 ft 168 kts 134°
2026-04-17 10:56 13.28716 -59.69743 9941 ft 168 kts 135°
2026-04-17 10:56 13.27881 -59.68902 9941 ft 168 kts 134°
2026-04-17 10:56 13.27063 -59.68078 9946 ft 166 kts 134°
2026-04-17 10:56 13.26243 -59.67251 9944 ft 165 kts 134°
2026-04-17 10:57 13.25427 -59.66428 9945 ft 164 kts 134°
2026-04-17 10:57 13.24611 -59.65604 9942 ft 165 kts 134°
2026-04-17 10:57 13.23792 -59.64780 9940 ft 165 kts 134°
2026-04-17 10:57 13.22968 -59.63951 9937 ft 166 kts 134°
2026-04-17 10:58 13.22146 -59.63120 9942 ft 165 kts 134°
2026-04-17 10:58 13.21327 -59.62297 9942 ft 165 kts 134°
2026-04-17 10:58 13.20499 -59.61463 9937 ft 166 kts 134°
2026-04-17 10:58 13.19674 -59.60631 9937 ft 167 kts 134°
2026-04-17 10:59 13.18844 -59.59797 9930 ft 167 kts 134°
2026-04-17 10:59 13.18012 -59.58959 9924 ft 168 kts 134°
2026-04-17 10:59 13.17177 -59.58116 9932 ft 168 kts 134°
2026-04-17 10:59 13.16346 -59.57281 9934 ft 167 kts 134°
2026-04-17 11:00 13.15514 -59.56442 9929 ft 168 kts 135°
2026-04-17 11:00 13.14694 -59.55613 9935 ft 167 kts 134°
2026-04-17 11:00 13.13860 -59.54777 9936 ft 168 kts 134°
2026-04-17 11:00 13.13028 -59.53940 9940 ft 167 kts 134°
2026-04-17 11:01 13.12199 -59.53106 9945 ft 167 kts 134°
2026-04-17 11:01 13.11368 -59.52272 9946 ft 167 kts 134°
2026-04-17 11:01 13.10540 -59.51436 9943 ft 167 kts 134°
2026-04-17 11:01 13.09707 -59.50598 9941 ft 168 kts 134°
2026-04-17 11:02 13.08872 -59.49759 9941 ft 168 kts 134°
2026-04-17 11:02 13.07974 -59.49042 9917 ft 168 kts 157°
2026-04-17 11:02 13.06795 -59.48992 9926 ft 171 kts 192°
2026-04-17 11:02 13.05777 -59.49591 9933 ft 172 kts 214°
2026-04-17 11:03 13.04798 -59.50302 9936 ft 173 kts 212°
2026-04-17 11:03 13.03803 -59.50997 9940 ft 173 kts 212°
2026-04-17 11:03 13.02809 -59.51699 9946 ft 174 kts 212°
2026-04-17 11:03 13.01811 -59.52403 9945 ft 174 kts 212°
2026-04-17 11:04 13.00817 -59.53105 9944 ft 174 kts 213°
2026-04-17 11:04 12.99822 -59.53808 9949 ft 174 kts 213°
2026-04-17 11:04 12.98828 -59.54509 9948 ft 174 kts 213°
2026-04-17 11:04 12.97830 -59.55215 9944 ft 174 kts 213°
2026-04-17 11:05 12.96833 -59.55918 9947 ft 174 kts 213°
2026-04-17 11:05 12.95837 -59.56621 9947 ft 174 kts 213°
2026-04-17 11:05 12.94852 -59.57316 9950 ft 174 kts 212°
2026-04-17 11:05 12.93849 -59.58023 9945 ft 175 kts 212°
2026-04-17 11:06 12.92848 -59.58732 9943 ft 175 kts 212°
2026-04-17 11:06 12.91846 -59.59439 9942 ft 175 kts 211°
2026-04-17 11:06 12.90846 -59.60142 9944 ft 174 kts 212°
2026-04-17 11:06 12.89848 -59.60847 9943 ft 174 kts 211°
2026-04-17 11:07 12.88851 -59.61550 9942 ft 174 kts 211°
2026-04-17 11:07 12.87852 -59.62253 9945 ft 174 kts 212°
2026-04-17 11:07 12.86852 -59.62960 9942 ft 174 kts 211°
2026-04-17 11:07 12.85856 -59.63662 9942 ft 174 kts 212°
2026-04-17 11:08 12.84860 -59.64365 9940 ft 174 kts 211°
2026-04-17 11:08 12.83877 -59.65057 9941 ft 173 kts 211°
2026-04-17 11:08 12.82882 -59.65758 9940 ft 174 kts 212°
2026-04-17 11:08 12.81885 -59.66460 9941 ft 174 kts 212°
2026-04-17 11:09 12.80888 -59.67164 9939 ft 174 kts 212°
2026-04-17 11:09 12.79892 -59.67866 9938 ft 174 kts 211°
2026-04-17 11:09 12.78895 -59.68567 9939 ft 173 kts 212°
2026-04-17 11:10 12.76904 -59.69971 9940 ft 174 kts 211°
2026-04-17 11:10 12.75908 -59.70673 9940 ft 174 kts 211°
2026-04-17 11:10 12.74913 -59.71374 9942 ft 173 kts 212°
2026-04-17 11:10 12.73919 -59.72075 9949 ft 174 kts 211°
2026-04-17 11:11 12.72924 -59.72775 9952 ft 174 kts 211°
2026-04-17 11:11 12.71926 -59.73477 9952 ft 174 kts 212°
2026-04-17 11:11 12.70932 -59.74178 9950 ft 174 kts 211°
2026-04-17 11:11 12.69948 -59.74870 9951 ft 173 kts 211°
2026-04-17 11:12 12.68954 -59.75570 9949 ft 173 kts 212°
2026-04-17 11:12 12.67958 -59.76270 9948 ft 173 kts 210°
2026-04-17 11:12 12.66961 -59.76971 9948 ft 174 kts 212°
2026-04-17 11:12 12.65965 -59.77673 9949 ft 174 kts 212°
2026-04-17 11:13 12.64969 -59.78375 9950 ft 174 kts 212°
2026-04-17 11:13 12.63971 -59.79075 9950 ft 173 kts 212°
2026-04-17 11:13 12.62977 -59.79776 9951 ft 173 kts 212°
2026-04-17 11:13 12.62319 -59.80238 9951 ft 173 kts 212°
2026-04-17 11:14 12.61326 -59.80938 9949 ft 173 kts 210°
2026-04-17 11:14 12.60331 -59.81637 9947 ft 173 kts 212°
2026-04-17 11:14 12.59338 -59.82337 9946 ft 173 kts 211°
2026-04-17 11:14 12.58344 -59.83034 9952 ft 173 kts 211°
2026-04-17 11:15 12.57350 -59.83733 9954 ft 173 kts 212°
2026-04-17 11:15 12.56356 -59.84434 9954 ft 174 kts 212°
2026-04-17 11:15 12.55359 -59.85133 9955 ft 174 kts 212°
2026-04-17 11:15 12.54362 -59.85834 9957 ft 174 kts 212°
2026-04-17 11:16 12.53382 -59.86523 9952 ft 173 kts 212°
2026-04-17 11:16 12.52389 -59.87221 9951 ft 173 kts 211°
2026-04-17 11:16 12.51395 -59.87918 9952 ft 173 kts 211°
2026-04-17 11:16 12.50403 -59.88618 9953 ft 173 kts 210°
2026-04-17 11:17 12.49408 -59.89315 9957 ft 173 kts 210°
2026-04-17 11:17 12.48414 -59.90014 9955 ft 173 kts 210°
2026-04-17 11:17 12.47422 -59.90712 9956 ft 173 kts 211°
2026-04-17 11:17 12.46432 -59.91407 9954 ft 173 kts 212°
2026-04-17 11:18 12.45439 -59.92104 9951 ft 173 kts 211°
2026-04-17 11:18 12.44448 -59.92799 9952 ft 173 kts 212°
2026-04-17 11:18 12.43459 -59.93496 9951 ft 172 kts 210°
2026-04-17 11:18 12.42470 -59.94188 9951 ft 172 kts 212°
2026-04-17 11:19 12.41481 -59.94885 9959 ft 173 kts 210°
2026-04-17 11:19 12.40489 -59.95579 9960 ft 172 kts 210°
2026-04-17 11:19 12.39515 -59.96264 9959 ft 172 kts 212°
2026-04-17 11:19 12.38528 -59.96957 9959 ft 172 kts 210°
2026-04-17 11:20 12.37537 -59.97652 9962 ft 172 kts 210°
2026-04-17 11:20 12.36544 -59.98347 9962 ft 173 kts 211°
2026-04-17 11:20 12.35557 -59.99042 9961 ft 172 kts 211°
2026-04-17 11:20 12.34564 -59.99737 9961 ft 172 kts 210°
2026-04-17 11:21 12.33576 -60.00430 9962 ft 172 kts 211°
2026-04-17 11:21 12.32588 -60.01125 9962 ft 172 kts 209°
2026-04-17 11:21 12.31599 -60.01817 9963 ft 172 kts 210°
2026-04-17 11:21 12.30615 -60.02507 9963 ft 171 kts 209°
2026-04-17 11:22 12.29631 -60.03198 9966 ft 172 kts 211°
2026-04-17 11:22 12.28655 -60.03885 9966 ft 173 kts 209°
2026-04-17 11:22 12.27664 -60.04578 9963 ft 173 kts 211°
2026-04-17 11:22 12.26675 -60.05272 9965 ft 173 kts 212°
2026-04-17 11:23 12.25683 -60.05967 9960 ft 173 kts 209°
2026-04-17 11:23 12.24689 -60.06664 9962 ft 173 kts 210°
2026-04-17 11:23 12.23697 -60.07359 9964 ft 173 kts 211°
2026-04-17 11:23 12.22708 -60.08053 9965 ft 172 kts 209°
2026-04-17 11:24 12.21718 -60.08745 9966 ft 172 kts 210°
2026-04-17 11:24 12.20732 -60.09436 9966 ft 172 kts 211°
2026-04-17 11:24 12.19747 -60.10126 9965 ft 172 kts 210°
2026-04-17 11:24 12.18762 -60.10814 9965 ft 171 kts 211°
2026-04-17 11:25 12.17777 -60.11506 9959 ft 172 kts 211°
2026-04-17 11:25 12.16789 -60.12200 9959 ft 172 kts 211°
2026-04-17 11:25 12.15808 -60.12885 9959 ft 173 kts 209°
2026-04-17 11:25 12.14813 -60.13579 9962 ft 175 kts 211°
2026-04-17 11:26 12.13806 -60.14288 9965 ft 177 kts 209°
2026-04-17 11:26 12.12786 -60.15001 9966 ft 178 kts 209°
2026-04-17 11:26 12.11766 -60.15716 9964 ft 178 kts 210°
2026-04-17 11:26 12.10745 -60.16430 9964 ft 178 kts 211°
2026-04-17 11:27 12.09721 -60.17145 9968 ft 178 kts 211°
2026-04-17 11:27 12.08702 -60.17860 9966 ft 178 kts 212°
2026-04-17 11:27 12.07679 -60.18577 9969 ft 178 kts 210°
2026-04-17 11:27 12.06654 -60.19294 9966 ft 179 kts 209°
2026-04-17 11:28 12.05641 -60.20002 9967 ft 179 kts 211°
2026-04-17 11:28 12.04614 -60.20722 9968 ft 179 kts 209°
2026-04-17 11:28 12.03587 -60.21440 9964 ft 179 kts 209°
2026-04-17 11:28 12.02561 -60.22156 9965 ft 179 kts 211°
2026-04-17 11:29 12.01538 -60.22875 9962 ft 179 kts 209°
2026-04-17 11:29 12.00515 -60.23589 9962 ft 178 kts 211°
2026-04-17 11:29 11.99492 -60.24305 9964 ft 178 kts 211°
2026-04-17 11:29 11.98471 -60.25019 9962 ft 178 kts 210°
2026-04-17 11:30 11.97447 -60.25735 9965 ft 178 kts 209°
2026-04-17 11:30 11.96425 -60.26448 9966 ft 178 kts 211°
2026-04-17 11:30 11.95401 -60.27166 9965 ft 178 kts 208°
2026-04-17 11:30 11.94379 -60.27879 9966 ft 178 kts 210°
2026-04-17 11:31 11.93355 -60.28594 9962 ft 178 kts 211°
2026-04-17 11:31 11.92333 -60.29311 9965 ft 178 kts 208°
2026-04-17 11:31 11.91307 -60.30026 9965 ft 179 kts 209°
2026-04-17 11:31 11.90280 -60.30745 9957 ft 179 kts 211°
2026-04-17 11:32 11.89252 -60.31464 9960 ft 179 kts 209°
2026-04-17 11:32 11.88227 -60.32179 9961 ft 178 kts 209°
2026-04-17 11:32 11.87206 -60.32894 9962 ft 178 kts 210°
2026-04-17 11:32 11.86197 -60.33597 9961 ft 178 kts 208°
2026-04-17 11:33 11.85175 -60.34310 9958 ft 178 kts 211°
2026-04-17 11:33 11.84153 -60.35024 9957 ft 178 kts 209°
2026-04-17 11:33 11.83128 -60.35740 9956 ft 178 kts 209°
2026-04-17 11:33 11.82107 -60.36451 9957 ft 178 kts 211°
2026-04-17 11:34 11.81084 -60.37167 9957 ft 178 kts 209°
2026-04-17 11:34 11.80060 -60.37883 9959 ft 178 kts 208°
2026-04-17 11:34 11.79035 -60.38597 9962 ft 178 kts 210°
2026-04-17 11:34 11.78008 -60.39317 9954 ft 179 kts 208°
2026-04-17 11:35 11.76973 -60.40036 9953 ft 180 kts 208°
2026-04-17 11:35 11.75937 -60.40759 9955 ft 181 kts 210°
2026-04-17 11:35 11.74902 -60.41484 9956 ft 181 kts 208°
2026-04-17 11:35 11.73862 -60.42208 9957 ft 181 kts 208°
2026-04-17 11:36 11.72822 -60.42933 9953 ft 181 kts 211°
2026-04-17 11:36 11.71798 -60.43648 9955 ft 180 kts 210°
2026-04-17 11:36 11.70763 -60.44370 9956 ft 180 kts 208°
2026-04-17 11:36 11.69726 -60.45093 9954 ft 180 kts 211°
2026-04-17 11:37 11.68690 -60.45818 9955 ft 181 kts 208°
2026-04-17 11:37 11.67649 -60.46541 9959 ft 180 kts 211°
2026-04-17 11:37 11.66615 -60.47263 9955 ft 179 kts 211°
2026-04-17 11:37 11.65586 -60.47982 9956 ft 179 kts 211°
2026-04-17 11:38 11.64554 -60.48698 9952 ft 180 kts 210°
2026-04-17 11:38 11.63525 -60.49417 9954 ft 179 kts 211°
2026-04-17 11:38 11.62496 -60.50136 9951 ft 179 kts 210°
2026-04-17 11:38 11.61466 -60.50852 9953 ft 179 kts 210°
2026-04-17 11:39 11.60451 -60.51559 9953 ft 179 kts 210°
2026-04-17 11:39 11.59421 -60.52277 9951 ft 179 kts 208°
2026-04-17 11:39 11.58393 -60.52994 9951 ft 179 kts 209°
2026-04-17 11:39 11.57366 -60.53709 9950 ft 178 kts 211°
2026-04-17 11:40 11.56340 -60.54426 9952 ft 178 kts 209°
2026-04-17 11:40 11.55313 -60.55137 9950 ft 179 kts 211°
2026-04-17 11:40 11.54287 -60.55855 9945 ft 179 kts 211°
2026-04-17 11:40 11.53259 -60.56569 9945 ft 179 kts 209°
2026-04-17 11:41 11.52233 -60.57282 9942 ft 178 kts 211°
2026-04-17 11:41 11.51223 -60.57987 9942 ft 178 kts 209°
2026-04-17 11:41 11.50196 -60.58703 9943 ft 179 kts 208°
2026-04-17 11:41 11.49170 -60.59416 9944 ft 179 kts 209°
2026-04-17 11:42 11.48146 -60.60130 9947 ft 178 kts 211°
2026-04-17 11:42 11.47119 -60.60846 9947 ft 179 kts 211°
2026-04-17 11:42 11.46090 -60.61559 9948 ft 178 kts 211°
2026-04-17 11:42 11.45067 -60.62274 9947 ft 178 kts 211°
2026-04-17 11:43 11.44039 -60.62988 9944 ft 178 kts 209°
2026-04-17 11:43 11.43014 -60.63700 9940 ft 178 kts 211°
2026-04-17 11:43 11.41992 -60.64414 9941 ft 178 kts 209°
2026-04-17 11:43 11.40971 -60.65123 9942 ft 177 kts 209°
2026-04-17 11:44 11.39965 -60.65823 9941 ft 178 kts 209°
2026-04-17 11:44 11.38942 -60.66533 9939 ft 178 kts 211°
2026-04-17 11:44 11.37920 -60.67246 9939 ft 178 kts 211°
2026-04-17 11:44 11.36897 -60.67956 9938 ft 178 kts 211°
2026-04-17 11:45 11.35873 -60.68670 9937 ft 178 kts 211°
2026-04-17 11:45 11.34846 -60.69383 9938 ft 178 kts 210°
2026-04-17 11:45 11.33819 -60.70095 9939 ft 178 kts 211°
2026-04-17 11:45 11.32798 -60.70807 9942 ft 178 kts 209°
2026-04-17 11:46 11.31774 -60.71519 9944 ft 178 kts 208°
2026-04-17 11:46 11.30751 -60.72230 9942 ft 178 kts 209°
2026-04-17 11:46 11.29727 -60.72942 9942 ft 178 kts 211°
2026-04-17 11:46 11.28702 -60.73655 9942 ft 178 kts 210°
2026-04-17 11:47 11.27675 -60.74367 9939 ft 179 kts 211°
2026-04-17 11:47 11.26658 -60.75074 9939 ft 179 kts 211°
2026-04-17 11:47 11.25632 -60.75788 9939 ft 179 kts 209°
2026-04-17 11:47 11.24605 -60.76499 9920 ft 178 kts 211°
2026-04-17 11:48 11.23580 -60.77212 9918 ft 179 kts 209°
2026-04-17 11:48 11.22552 -60.77925 9917 ft 178 kts 208°
2026-04-17 11:48 11.21528 -60.78636 9918 ft 178 kts 211°
2026-04-17 11:48 11.20504 -60.79350 9917 ft 178 kts 211°
2026-04-17 11:49 11.19481 -60.80060 9916 ft 178 kts 209°
2026-04-17 11:49 11.18455 -60.80771 9920 ft 178 kts 211°
2026-04-17 11:49 11.17433 -60.81483 9919 ft 178 kts 208°
2026-04-17 11:49 11.16412 -60.82192 9920 ft 177 kts 209°
2026-04-17 11:50 11.15398 -60.82902 9919 ft 176 kts 213°
2026-04-17 11:50 11.14753 -60.83980 9884 ft 190 kts 255°
2026-04-17 11:50 11.15030 -60.85293 9891 ft 195 kts 300°
2026-04-17 11:50 11.15790 -60.86426 9900 ft 194 kts 298°
2026-04-17 11:51 11.16291 -60.87693 9913 ft 191 kts 286°
2026-04-17 11:51 11.16693 -60.88979 9922 ft 190 kts 287°
2026-04-17 11:51 11.17126 -60.90252 9919 ft 191 kts 288°
2026-04-17 11:51 11.17567 -60.91521 9922 ft 189 kts 288°
2026-04-17 11:52 11.18002 -60.92773 9920 ft 190 kts 288°
2026-04-17 11:52 11.18441 -60.94049 9959 ft 191 kts 288°
2026-04-17 11:52 11.18888 -60.95329 9953 ft 193 kts 287°
2026-04-17 11:52 11.19326 -60.96617 9958 ft 192 kts 288°
2026-04-17 11:53 11.19770 -60.97892 9959 ft 190 kts 288°
2026-04-17 11:53 11.20209 -60.99161 9967 ft 190 kts 288°
2026-04-17 11:53 11.20647 -61.00429 9967 ft 190 kts 288°
2026-04-17 11:53 11.21090 -61.01701 9955 ft 192 kts 287°
2026-04-17 11:54 11.21520 -61.02997 9946 ft 191 kts 282°
2026-04-17 11:54 11.21373 -61.04295 9941 ft 185 kts 238°
2026-04-17 11:54 11.20420 -61.05068 9941 ft 174 kts 190°
2026-04-17 11:54 11.19301 -61.04875 9943 ft 164 kts 143°
2026-04-17 11:55 11.18767 -61.03902 9941 ft 163 kts 97°
2026-04-17 11:55 11.18637 -61.02774 9951 ft 160 kts 105°
2026-04-17 11:55 11.18349 -61.01674 9953 ft 156 kts 104°
2026-04-17 11:55 11.18132 -61.00632 9706 ft 151 kts 103°
2026-04-17 11:56 11.17930 -60.99588 9094 ft 152 kts 102°
2026-04-17 11:56 11.17728 -60.98523 8394 ft 153 kts 102°
2026-04-17 11:56 11.17527 -60.97460 7693 ft 152 kts 101°
2026-04-17 11:56 11.17396 -60.96760 7243 ft 152 kts 101°
2026-04-17 11:57 11.17134 -60.95366 6365 ft 150 kts 100°
2026-04-17 11:57 11.16938 -60.94324 5664 ft 149 kts 100°
2026-04-17 11:57 11.16745 -60.93292 4935 ft 147 kts 100°
2026-04-17 11:57 11.16553 -60.92277 4238 ft 145 kts 99°
2026-04-17 11:58 11.16365 -60.91274 3540 ft 144 kts 99°
2026-04-17 11:58 11.16176 -60.90275 2849 ft 144 kts 99°
2026-04-17 11:58 11.16061 -60.89292 2270 ft 132 kts 85°
2026-04-17 11:58 11.16425 -60.88505 1838 ft 122 kts 51°
2026-04-17 11:59 11.16769 -60.87825 1466 ft 107 kts 98°
2026-04-17 11:59 11.16202 -60.87338 1110 ft 125 kts 166°
2026-04-17 11:59 11.15415 -60.87338 850 ft 90 kts 140°
2026-04-17 11:59 11.15249 -60.86863 580 ft 70 kts 88°
2026-04-17 12:00 11.15207 -60.86562 468 ft 60 kts 95°
2026-04-17 12:00 11.15166 -60.86071 414 ft 76 kts 87°
2026-04-17 12:00 11.15117 -60.85321 288 ft 81 kts 94°
2026-04-17 12:00 11.15077 -60.84742 166 ft 83 kts 91°
2026-04-17 12:01 11.15035 -60.84164 68 ft 80 kts 91°
2026-04-17 12:01 11.15000 -60.83663 30 ft 47 kts 94°
2026-04-17 12:01 11.14991 -60.83543 30 ft 16 kts 91°
2026-04-17 12:01 11.15006 -60.83433 30 ft 15 kts 75°
2026-04-17 12:02 11.15030 -60.83354 31 ft 9 kts 70°